Location: Flotzheim
(48.8375°N, 10.8136°E)
Time: 17:00:42
(UTC+00:00)

Cosmos 1455 - Pass Details

Date: 23 January 2021
Orbit: 499 x 520 km, 82.5° (Epoch: 28 February)

Event Time Altitude Azimuth Distance (km) Brightness Sun altitude
Rises 18:05:05 0° 342° (NNW) 2,634 5.9 -20.3°
Reaches altitude 10° 18:07:22 10° 332° (NNW) 1,746 5.1 -20.6°
Maximum altitude 18:10:47 32° 269° (W) 907 4.1 -21.2°
Drops below altitude 10° 18:14:12 10° 205° (SSW) 1,743 5.2 -21.8°
Sets 18:16:29 0° 195° (SSW) 2,628 6.0 -22.1°
